Location: *
(51.2167°N, 10.0667°E)
Time: 00:52:20
(UTC+00:00)

Cosmos 407 Rocket - Pass Details

Date: 12 December 2019
Orbit: 743 x 787 km, 74.0° (Epoch: 26 January)

Event Time Altitude Azimuth Distance (km) Brightness Sun altitude
Rises 18:13:26 0° 218° (SW) 3,204 7.3 -27.1°
Reaches altitude 10° 18:15:51 10° 224° (SW) 2,289 6.5 -27.4°
Maximum altitude 18:20:55 52° 301° (WNW) 950 4.1 -28.2°
Enters shadow 18:22:09 43° 344° (NNW) 1,081 4.3 -28.4°
